| time (UTC) | temp C | wind direction | speed KPH | gust KPH | rain 1hr cm | rain 24hr cm | rain mn cm | humidity % | barometer mb |
| 20260905120703 | 11 | 112 | 0.0 | 0.0 | 0.00 | 0.00 | 0.00 | 90 | 1017.0 |
| 20260905120204 | 11 | 112 | 0.0 | 0.0 | 0.00 | 0.00 | 0.00 | 90 | 1017.0 |
| 20260905113703 | 11 | 112 | 0.0 | 0.0 | 0.00 | 0.00 | 0.00 | 90 | 1016.9 |
| 20260905113203 | 11 | 112 | 0.0 | 0.0 | 0.00 | 0.00 | 0.00 | 89 | 1016.9 |
| 20260905110204 | 11 | 112 | 0.0 | 0.0 | 0.00 | 0.00 | 0.00 | 89 | 1016.8 |
| 20260905103704 | 11 | 112 | 0.0 | 0.0 | 0.00 | 0.00 | 0.00 | 88 | 1016.6 |
| 20260905103203 | 11 | 112 | 0.0 | 0.0 | 0.00 | 0.00 | 0.00 | 89 | 1016.5 |
| 20260905100704 | 12 | 112 | 0.0 | 0.0 | 0.00 | 0.00 | 0.00 | 88 | 1016.5 |
| 20260905100204 | 12 | 112 | 0.0 | 1.6 | 0.00 | 0.00 | 0.00 | 87 | 1016.5 |
| 20260905093704 | 12 | 113 | 0.0 | 0.0 | 0.00 | 0.00 | 0.00 | 88 | 1016.5 |
| 20260905090204 | 12 | 113 | 0.0 | 1.6 | 0.00 | 0.00 | 0.00 | 87 | 1016.5 |
| 20260905083704 | 12 | 130 | 0.0 | 0.0 | 0.00 | 0.00 | 0.00 | 86 | 1016.3 |
| 20260905083205 | 12 | 130 | 0.0 | 0.0 | 0.00 | 0.00 | 0.00 | 86 | 1016.3 |
| 20260905080704 | 12 | 130 | 0.0 | 0.0 | 0.00 | 0.00 | 0.00 | 87 | 1016.2 |
| 20260905073704 | 13 | 130 | 0.0 | 0.0 | 0.00 | 0.00 | 0.00 | 84 | 1016.2 |
| 20260905073204 | 13 | 130 | 0.0 | 4.8 | 0.00 | 0.00 | 0.00 | 84 | 1016.1 |
| 20260905070704 | 13 | 52 | 0.0 | 0.0 | 0.00 | 0.00 | 0.00 | 86 | 1016.0 |
| 20260905070204 | 13 | 52 | 0.0 | 0.0 | 0.00 | 0.00 | 0.00 | 86 | 1016.0 |
| 20260905063704 | 13 | 52 | 0.0 | 0.0 | 0.00 | 0.05 | 0.00 | 85 | 1015.8 |
| 20260905063204 | 13 | 52 | 0.0 | 0.0 | 0.00 | 0.05 | 0.00 | 85 | 1015.8 |
| 20260905060704 | 14 | 52 | 0.0 | 1.6 | 0.00 | 0.08 | 0.00 | 84 | 1015.6 |
| 20260905060204 | 14 | 52 | 0.0 | 0.0 | 0.00 | 0.08 | 0.00 | 83 | 1015.5 |
| 20260905053704 | 15 | 52 | 0.0 | 0.0 | 0.00 | 0.08 | 0.00 | 80 | 1015.5 |
| 20260905053203 | 15 | 52 | 0.0 | 4.8 | 0.00 | 0.08 | 0.00 | 80 | 1015.5 |
| 20260905050704 | 15 | 52 | 0.0 | 0.0 | 0.00 | 0.08 | 0.00 | 85 | 1015.5 |
| 20260905050204 | 15 | 52 | 0.0 | 0.0 | 0.00 | 0.08 | 0.00 | 84 | 1015.5 |
| 20260905043703 | 15 | 52 | 0.0 | 3.2 | 0.00 | 0.08 | 0.00 | 83 | 1015.6 |
| 20260905043204 | 15 | 52 | 1.6 | 11.3 | 0.00 | 0.08 | 0.00 | 83 | 1015.5 |
| 20260905040704 | 16 | 57 | 4.8 | 8.0 | 0.00 | 0.08 | 0.00 | 82 | 1015.5 |
| 20260905040204 | 16 | 69 | 3.2 | 4.8 | 0.00 | 0.08 | 0.00 | 81 | 1015.5 |
| 20260905033704 | 16 | 53 | 1.6 | 4.8 | 0.00 | 0.08 | 0.00 | 81 | 1015.4 |
| 20260905033203 | 16 | 69 | 0.0 | 4.8 | 0.00 | 0.08 | 0.00 | 81 | 1015.5 |
| 20260905030204 | 16 | 63 | 1.6 | 8.0 | 0.00 | 0.08 | 0.00 | 79 | 1015.1 |
| 20260905023704 | 16 | 306 | 0.0 | 1.6 | 0.00 | 0.08 | 0.00 | 77 | 1014.9 |
| 20260905023204 | 16 | 306 | 0.0 | 12.9 | 0.00 | 0.08 | 0.00 | 77 | 1014.9 |
| 20260905020704 | 17 | 68 | 4.8 | 9.7 | 0.00 | 0.08 | 0.00 | 72 | 1014.8 |
| 20260905020203 | 17 | 69 | 4.8 | 9.7 | 0.00 | 0.08 | 0.00 | 72 | 1014.8 |
| 20260905013703 | 17 | 71 | 3.2 | 12.9 | 0.00 | 0.10 | 0.00 | 69 | 1014.8 |
| 20260905013204 | 17 | 93 | 4.8 | 19.3 | 0.00 | 0.10 | 0.00 | 69 | 1014.7 |
| 20260905010204 | 17 | 71 | 6.4 | 16.1 | 0.00 | 0.36 | 0.00 | 72 | 1014.3 |
| 20260905003703 | 18 | 70 | 8.0 | 14.5 | 0.00 | 0.53 | 0.00 | 71 | 1014.2 |
| 20260905003204 | 18 | 53 | 8.0 | 19.3 | 0.00 | 0.53 | 0.00 | 70 | 1014.2 |
| 20260905000704 | 19 | 70 | 8.0 | 19.3 | 0.00 | 0.53 | 0.00 | 66 | 1014.0 |
| 20260905000204 | 19 | 84 | 8.0 | 19.3 | 0.00 | 0.53 | 0.00 | 65 | 1014.0 |
| 20260904233704 | 21 | 258 | 3.2 | 4.8 | 0.00 | 0.53 | 0.00 | 53 | 1013.9 |
| 20260904230704 | 21 | 128 | 1.6 | 4.8 | 0.00 | 0.53 | 0.00 | 54 | 1013.6 |
| 20260904230204 | 21 | 351 | 3.2 | 16.1 | 0.00 | 0.53 | 0.00 | 55 | 1013.5 |
| 20260904223704 | 21 | 346 | 3.2 | 11.3 | 0.00 | 0.53 | 0.00 | 57 | 1013.3 |
| 20260904223204 | 21 | 13 | 3.2 | 14.5 | 0.00 | 0.53 | 0.00 | 60 | 1013.2 |
| 20260904220703 | 22 | 335 | 3.2 | 12.9 | 0.00 | 0.53 | 0.00 | 54 | 1013.3 |
| 20260904213704 | 22 | 322 | 1.6 | 4.8 | 0.00 | 0.53 | 0.00 | 55 | 1013.1 |
| 20260904213204 | 22 | 359 | 1.6 | 11.3 | 0.00 | 0.53 | 0.00 | 56 | 1013.1 |
| 20260904210704 | 21 | 190 | 3.2 | 9.7 | 0.00 | 0.53 | 0.00 | 58 | 1013.0 |
| 20260904210204 | 21 | 259 | 4.8 | 12.9 | 0.00 | 0.53 | 0.00 | 57 | 1013.1 |
| 20260904203704 | 20 | 323 | 1.6 | 4.8 | 0.00 | 0.53 | 0.00 | 60 | 1013.2 |
| 20260904203204 | 20 | 298 | 3.2 | 14.5 | 0.00 | 0.53 | 0.00 | 60 | 1013.2 |
| 20260904200704 | 20 | 255 | 1.6 | 9.7 | 0.00 | 0.53 | 0.00 | 62 | 1013.3 |
| 20260904200204 | 20 | 356 | 3.2 | 9.7 | 0.00 | 0.53 | 0.00 | 63 | 1013.3 |
| 20260904193704 | 20 | 266 | 1.6 | 4.8 | 0.00 | 0.53 | 0.00 | 64 | 1013.3 |
| 20260904193204 | 20 | 54 | 3.2 | 9.7 | 0.00 | 0.53 | 0.00 | 64 | 1013.3 |
| 20260904190703 | 18 | 301 | 4.8 | 16.1 | 0.00 | 0.53 | 0.00 | 70 | 1013.4 |
| 20260904190203 | 18 | 19 | 3.2 | 11.3 | 0.00 | 0.53 | 0.00 | 71 | 1013.4 |
| 20260904183704 | 17 | 317 | 1.6 | 4.8 | 0.00 | 0.53 | 0.00 | 74 | 1013.4 |
| 20260904183204 | 17 | 162 | 1.6 | 4.8 | 0.00 | 0.53 | 0.00 | 76 | 1013.5 |
| 20260904180704 | 16 | 179 | 0.0 | 3.2 | 0.00 | 0.53 | 0.00 | 79 | 1013.5 |
| 20260904180203 | 16 | 199 | 1.6 | 9.7 | 0.00 | 0.53 | 0.00 | 81 | 1013.5 |
| 20260904173703 | 16 | 314 | 3.2 | 4.8 | 0.00 | 0.53 | 0.00 | 84 | 1013.6 |
| 20260904170204 | 15 | 288 | 1.6 | 3.2 | 0.00 | 0.53 | 0.00 | 87 | 1013.5 |
| 20260904163703 | 14 | 306 | 1.6 | 3.2 | 0.00 | 0.53 | 0.00 | 88 | 1013.5 |
| 20260904163204 | 14 | 306 | 0.0 | 3.2 | 0.00 | 0.53 | 0.00 | 88 | 1013.5 |
| 20260904160703 | 14 | 306 | 1.6 | 3.2 | 0.00 | 0.53 | 0.00 | 89 | 1013.4 |
| 20260904153704 | 14 | 72 | 0.0 | 1.6 | 0.00 | 0.53 | 0.00 | 87 | 1013.2 |
| 20260904150704 | 13 | 86 | 0.0 | 1.6 | 0.00 | 0.53 | 0.00 | 91 | 1013.0 |
| 20260904143704 | 12 | 86 | 0.0 | 0.0 | 0.00 | 0.53 | 0.00 | 92 | 1012.6 |
| 20260904143203 | 12 | 86 | 0.0 | 3.2 | 0.00 | 0.53 | 0.00 | 92 | 1012.6 |
| 20260904140704 | 12 | 86 | 0.0 | 1.6 | 0.00 | 0.53 | 0.00 | 92 | 1012.5 |
| 20260904140203 | 12 | 86 | 1.6 | 4.8 | 0.00 | 0.53 | 0.00 | 92 | 1012.5 |
| 20260904133704 | 12 | 93 | 1.6 | 4.8 | 0.00 | 0.53 | 0.00 | 93 | 1012.2 |
| 20260904130703 | 12 | 71 | 0.0 | 4.8 | 0.00 | 0.58 | 0.00 | 92 | 1011.9 |
| 20260904130204 | 12 | 59 | 0.0 | 1.6 | 0.00 | 0.58 | 0.00 | 92 | 1011.8 |
| 20260904123704 | 12 | 59 | 0.0 | 0.0 | 0.00 | 0.66 | 0.00 | 92 | 1011.8 |
| 20260904123204 | 12 | 59 | 1.6 | 3.2 | 0.00 | 0.66 | 0.00 | 92 | 1011.8 |